Flag for Canada Weather past 2 weeks in Steinbach, Manitoba, Canada

Now
5 °F

Frigid.


Feels Like: -5 °F
Forecast: -6 / 9 °F
Wind: 6 mph from Southwest

Location: Winnipeg The Forks

Current Time: Dec 27, 2014 at 9:49:51 AM

Latest Report: Dec 27, 2014 at 9:00 AM


Visibility: N/A

Pressure: 30.11 "Hg

Humidity: 79%

Dew point: 0 °F

Location of SteinbachLocation

Historic Weather in Steinbach — Graph

°F

Steinbach temperature yesterday

Maximum temperature yesterday: 24 °F (at 12:00 AM)
Minimum temperature yesterday: 2 °F (at 11:00 PM)
Average temperature yesterday: 11 °F

Past Weeks' High & Low Weather Summary

 TemperatureHumidityPressure
High35 °F (Dec 13, 8:00 PM)100% (Dec 13, 11:00 AM)30.47 "Hg (Dec 13, 11:00 AM)
Low1 °F (Dec 17, 7:00 AM)69% (Dec 17, 2:00 PM)29.40 "Hg (Dec 24, 10:00 PM)
Average23 °F89%30.01 "Hg
* Reported Dec 12 8:00 AM — Dec 27 8:00 AM, Steinbach, Weather by CustomWeather, © 2014

Note: Actual official high and low records may vary slightly from our data, if they occured in-between our weather recording intervals... More about our weather records

Advertising

Steinbach weather history for previous 24 hours

 ConditionsComfort  
Time TempWeatherWind HumidityBarometerVisibility
8:00 AM
Dec 27
4 °FFrigid.6 mph80%30.11 "HgN/A
7:00 AM3 °FFrigid.5 mph84%30.13 "HgN/A
6:00 AM2 °FFrigid.3 mph84%30.13 "HgN/A
5:00 AM1 °FFrigid.7 mph84%30.17 "HgN/A
4:00 AM1 °FFrigid.5 mph85%30.19 "HgN/A
3:00 AM2 °FFrigid.5 mph91%30.21 "HgN/A
2:00 AM3 °FFrigid.6 mph84%30.23 "HgN/A
1:00 AM3 °FFrigid.5 mph85%30.24 "HgN/A
12:00 AM2 °FFrigid.5 mph82%30.27 "HgN/A
11:00 PM
Dec 26
2 °FFrigid.5 mph80%30.28 "HgN/A
10:00 PM3 °FFrigid.1 mph82%30.29 "HgN/A
9:00 PM3 °FFrigid.2 mph79%30.31 "HgN/A
8:00 PM4 °FFrigid.3 mph81%30.32 "HgN/A
7:00 PM5 °FFrigid.3 mph81%30.31 "HgN/A
6:00 PM5 °FFrigid.5 mph83%30.30 "HgN/A
5:00 PM7 °FFrigid.6 mph85%30.29 "HgN/A
4:00 PM8 °FFrigid.6 mph84%30.28 "HgN/A
3:00 PM9 °FFrigid.5 mph84%30.27 "HgN/A
2:00 PM10 °FFrigid.6 mph84%30.26 "HgN/A
1:00 PM11 °FCold.5 mph79%30.25 "HgN/A
12:00 PM11 °FCold.5 mph77%30.25 "HgN/A
11:00 AM11 °FCold.3 mph77%30.26 "HgN/A
10:00 AM11 °FCold.3 mph80%30.26 "HgN/A
9:00 AM11 °FCold.2 mph83%30.24 "HgN/A
Weather by CustomWeather, © 2014

See weather overviewHow to use our weather pages